Location: Launay
(47.2429°N, 1.5727°E)
Time: 21:40:50
(UTC+00:00)

ALOS 2 - Pass Details

Date: 19 May 2025
Orbit: 630 x 632 km, 97.9° (Epoch: 18 June)

Event Time Altitude Azimuth Distance (km) Brightness Sun altitude
Exits shadow 22:19:06 21° 94° (E) 1,417 4.1 -19.7°
Maximum altitude 22:20:31 25° 65° (ENE) 1,278 4.2 -19.8°
Drops below altitude 10° 22:24:07 10° 10° (N) 2,026 6.0 -20.0°
Sets 22:26:37 0° 357° (N) 2,938 7.3 -20.2°
